Home > Weather > Corfu > Past weeks

Flag for Greece Past Weather in Corfu, Greece — Yesterday and Last 2 Weeks

Now
75 °F

Sunny.


Feels Like: 78 °F
Forecast: 63 / 76 °F
Wind: 8 mph from Southeast

Location: Kerkyra Airport

Current Time: May 29, 2016 at 12:50:55 PM

Latest Report: May 29, 2016 at 11:50 AM


Visibility: 10 mi

Pressure: 29.98 "Hg

Humidity: 57%

Dew Point: 59 °F

Location of CorfuLocation

Past Weather in Corfu — Graph

°F

Corfu Temperature Yesterday

Maximum temperature yesterday: 82 °F (at 6:20 PM)
Minimum temperature yesterday: 61 °F (at 4:50 AM)
Average temperature yesterday: 71 °F

High & Low Weather Summary for the Past Weeks

 TemperatureHumidityPressure
High82 °F (May 28, 6:20 PM)100% (May 16, 6:50 AM)30.07 "Hg (May 16, 6:50 AM)
Low55 °F (May 17, 4:50 AM)31% (May 24, 12:50 PM)29.71 "Hg (May 20, 8:50 PM)
Average66 °F73%29.93 "Hg
* Reported May 14 11:20 AM — May 29 11:20 AM, Corfu, Weather by CustomWeather, © 2016

Note: Actual official high and low records may vary slightly from our data, if they occured in-between our weather recording intervals... More about our weather records

Advertising

Corfu Weather History for the Previous 24 Hours

Scroll right to see more
 ConditionsComfort  
Time TempWeatherWind HumidityBarometerVisibility
11:20 AM
Sun, May 29
75 °FScattered clouds.5 mph61%29.95 "HgN/A
10:20 AM73 °FScattered clouds.5 mph65%29.98 "HgN/A
9:50 AM72 °FScattered clouds.No wind69%29.98 "HgN/A
9:20 AM70 °FScattered clouds.2 mph78%29.95 "HgN/A
8:50 AM68 °FScattered clouds.5 mph83%29.95 "HgN/A
8:20 AM64 °FScattered clouds.7 mph73%29.92 "HgN/A
7:50 AM61 °FScattered clouds.2 mph77%29.92 "HgN/A
7:20 AM61 °FScattered clouds.7 mph88%29.92 "HgN/A
6:50 AM61 °FPassing clouds.No wind88%29.92 "HgN/A
6:20 AM61 °FPassing clouds.No wind83%29.95 "HgN/A
5:50 AM63 °FPassing clouds.No wind77%29.95 "HgN/A
5:20 AM64 °FPassing clouds.No wind78%29.95 "HgN/A
4:50 AM64 °FPassing clouds.No wind78%29.95 "HgN/A
4:20 AM64 °FPassing clouds.No wind78%29.95 "HgN/A
3:50 AM64 °FPassing clouds.No wind78%29.95 "HgN/A
3:20 AM64 °FPassing clouds.No wind78%29.95 "HgN/A
2:50 AM64 °FPassing clouds.No wind78%29.95 "HgN/A
2:20 AM64 °FPassing clouds.No wind73%29.98 "HgN/A
1:50 AM66 °FPassing clouds.No wind68%29.98 "HgN/A
1:20 AM66 °FPassing clouds.No wind64%29.98 "HgN/A
12:50 AM66 °FPassing clouds.No wind64%29.98 "HgN/A
12:20 AM66 °FPassing clouds.No wind64%29.98 "HgN/A
11:50 PM
Sat, May 28
66 °FPassing clouds.No wind64%29.98 "HgN/A
11:20 PM70 °FPassing clouds.5 mph60%29.95 "HgN/A
10:50 PM70 °FPassing clouds.5 mph57%29.95 "HgN/A
10:20 PM70 °FPassing clouds.5 mph57%29.95 "HgN/A
9:50 PM72 °FScattered clouds.3 mph53%29.95 "HgN/A
8:50 PM73 °FScattered clouds.5 mph44%29.98 "HgN/A
8:20 PM77 °FPassing clouds.5 mph54%29.98 "HgN/A
7:50 PM79 °FPassing clouds.3 mph51%29.98 "HgN/A
7:20 PM82 °FPassing clouds.5 mph45%29.98 "HgN/A
6:50 PM82 °FPassing clouds.6 mph45%29.98 "HgN/A
6:20 PM82 °FPassing clouds.5 mph45%29.98 "HgN/A
5:20 PM81 °FScattered clouds.6 mph70%29.98 "HgN/A
4:50 PM81 °FScattered clouds.3 mph70%29.98 "HgN/A
4:20 PM81 °FScattered clouds.6 mph70%29.98 "HgN/A
3:50 PM81 °FScattered clouds.8 mph70%29.98 "HgN/A
3:20 PM79 °FScattered clouds.8 mph70%29.98 "HgN/A
2:20 PM77 °FPassing clouds.8 mph74%30.01 "HgN/A
1:50 PM77 °FPassing clouds.5 mph74%30.01 "HgN/A
1:20 PM77 °FPassing clouds.5 mph74%30.01 "HgN/A
12:50 PM77 °FPassing clouds.5 mph74%30.01 "HgN/A
12:20 PM73 °FPassing clouds.6 mph78%30.01 "HgN/A
Weather by CustomWeather, © 2016

See weather overviewHow to use our weather pages